sat.trackr.live / text

‹ back to catalog

STARLINK-31004

NORAD 58528 · 2023-191W

PAYLOAD ACTIVE UNKNOWN

§ Identity

Operator
Country
US
Launch date
2023-12-07
Launch site
AFETR
Launch vehicle
Mass (kg)
RCS (m²)

Purposes: comms

External: N2YO · Heavens-Above · Gunter

§ Orbital elements

Epoch: 2026-09-20T05:16:52.777920Z

Period
94.27 min
Inclination
43.0072°
Eccentricity
0.0001962
Mean motion
15.27579812 rev/d
Perigee alt
481.7 km
Apogee alt
484.4 km
Semi-major
6,861.2 km
B*
7.9215e-6
RAAN
84.7058°
Arg perigee
264.7492°
Mean anomaly
95.3136°
Rev number
15,522

§ Raw data

STARLINK-310041 58528U 23191W   26263.22005530 -.00000045  00000+0  79215-5 0  99982 58528  43.0072  84.7058 0001962 264.7492  95.3136 15.27579812155229

JSON: /api/v1/satellites/58528 · /tle

For live sub-satellite position, see the globe view (requires WebGL).

§ Visibility from observer

Set your observer location to see the next 7 days of passes ≥ 10°. The values pass through the URL so the page stays shareable.

No JS? Fill the form by hand. The geolocation button needs JavaScript.